Flag for U.S.A. Weather past 2 weeks in Citrus Heights, California, U.S.A.

Now
81 °F

Partly sunny.


Feels Like: 79 °F
Forecast: 50 / 82 °F
Wind: 5 mph from Northwest

Location: Mather Field


UV Index: 5 (Moderate)

Visibility: 10 mi


Pressure: 29.82 "Hg

Humidity: 28%

Dew point: 45 °F

Location of Citrus HeightsLocation

Historic Weather in Citrus Heights

°F

Citrus Heights temperature yesterday

Maximum temperature yesterday: 81 °F (at 3:55 PM)
Minimum temperature yesterday: 46 °F (at 5:45 AM)
Average temperature yesterday: 65 °F

Past Weeks' High & Low Weather Summary

 TemperatureHumidityPressure
High84 °F (Apr 8, 4:50 PM)100% (Apr 1, 3:45 PM)30.22 "Hg (Apr 1, 3:45 PM)
Low41 °F (Apr 2, 2:46 AM)23% (Apr 13, 3:46 PM)29.79 "Hg (Apr 11, 6:45 PM)
Average60 °F72%30.00 "Hg
* Reported Apr 1 2:50 PM — Apr 16 2:45 PM, Citrus Heights, Weather by CustomWeather, © 2014

Note: Actual official high and low records may vary slightly from our data, if they occured in-between our weather recording intervals... More about our weather records

Advertising

Historic Weather Conditions — Data for Previous 24 hours

 ConditionsComfort  
Time TempWeatherWind HumidityBarometerVisibility
2:45 PM
Apr 16
81 °FPartly sunny.5 mph28%29.82 "Hg10 mi
12:45 PM75 °FScattered clouds.12 mph34%29.86 "Hg10 mi
11:45 AM72 °FScattered clouds.10 mph44%29.88 "Hg10 mi
10:45 AM68 °FPassing clouds.3 mph56%29.89 "Hg10 mi
9:45 AM64 °FPassing clouds.3 mph68%29.89 "Hg10 mi
8:50 AM61 °FSunny.No wind83%29.89 "Hg10 mi
7:46 AM55 °FSunny.No wind100%29.88 "Hg10 mi
6:48 AM48 °FClear.No wind100%29.88 "Hg10 mi
5:46 AM52 °FClear.No wind100%29.86 "Hg10 mi
4:46 AM48 °FClear.No wind100%29.86 "Hg10 mi
3:46 AM50 °FPassing clouds.No wind100%29.87 "Hg10 mi
2:46 AM52 °FPassing clouds.No wind100%29.86 "Hg10 mi
10:45 PM
Apr 15
59 °FClear.6 mph88%29.87 "Hg10 mi
9:45 PM63 °FClear.No wind77%29.87 "Hg10 mi
8:48 PM64 °FPassing clouds.6 mph73%29.85 "Hg10 mi
7:46 PM72 °FScattered clouds.2 mph57%29.84 "Hg10 mi
6:47 PM77 °FScattered clouds.No wind34%29.84 "Hg10 mi
5:45 PM81 °FPassing clouds.6 mph26%29.85 "Hg10 mi
Weather by CustomWeather, © 2014

See weather overview